Date String (YYYY-MM-DD hh:mm:ss) UTC,Instrument flags,absolute air pressure of the measurement (hPa),sample flow rate (lpm),inlet stack bypass flow (lpm),air temperature of the measurement (°C),ambient temperature measured by the external sensor (°C),aerosol sample conditioner tube jacket temperature (°C),OPC LED temperature (°C),internal box temperature (°C),relative humidity of the measurement (%),span deviation,mass concentration of particles derived from Lorenz-Mie calculation of OPC scattering (μg/m³),mass concentration of particles derived from Lorenz-Mie calculation of OPC scattering (μg/m³),mass concentration of particles derived from Lorenz-Mie calculation of OPC scattering (μg/m³)
DateTimeUTC,F1_M11,P_M11,Q1_M11,Q2_M11,T1_M11,T2_M11,T3_M11,T4_M11,T5_M11,U1_M11,ZSPAN_M11,X0_M11,X2_M11,X1_M11
2023-07-10 13:00:00,SystemResetWarning,0830.6,5.02,000.00,029.9,028.6,000.0,038.4,031.4,29.7,0000.1,0011.78,0007.28,0006.73
2023-07-10 13:01:00,SystemResetWarning,0830.7,5.00,000.00,029.9,028.6,000.0,038.4,031.4,29.7,0000.0,0012.17,0007.26,0006.74
2023-07-10 13:02:00,SystemResetWarning,0830.7,5.00,000.00,029.9,028.7,000.0,038.4,031.4,29.7,0000.0,0012.16,0007.27,0006.74
2023-07-10 13:03:00,SystemResetWarning,0830.6,4.99,000.00,029.9,028.7,000.0,038.4,031.4,28.9,0000.4,0012.19,0007.26,0006.74
2023-07-10 13:04:00,SystemResetWarning,0830.6,4.99,000.00,029.9,028.7,000.0,038.4,031.5,27.9,0000.1,0012.13,0007.24,0006.75
2023-07-10 13:05:00,SystemResetWarning,0830.6,5.00,000.00,030.0,028.7,000.0,038.4,031.5,28.0,0000.3,0012.21,0007.25,0006.76
2023-07-10 13:06:00,SystemResetWarning,0830.5,5.00,000.00,030.0,027.6,000.0,038.4,031.4,28.7,0000.1,0012.55,0007.25,0006.76
2023-07-10 13:07:00,SystemResetWarning,0830.5,5.00,000.00,029.9,025.9,000.0,038.2,031.2,28.5,0000.1,0012.98,0007.25,0006.74
2023-07-10 13:08:00,SystemResetWarning,0830.4,5.00,000.00,029.8,025.3,000.0,038.1,031.0,28.9,-000.9,0013.08,0007.30,0006.75
2023-07-10 13:09:00,SystemResetWarning,0830.4,5.01,000.00,029.7,025.4,000.0,038.1,030.8,29.0,-001.4,0013.27,0007.31,0006.75
2023-07-10 13:10:00,SystemResetWarning,0830.4,5.01,000.00,029.6,025.8,000.0,038.2,030.7,29.3,-002.1,0013.81,0007.28,0006.72
2023-07-10 13:11:00,SystemResetWarning,0830.5,4.99,000.00,029.5,026.2,000.0,038.2,030.8,29.7,-002.8,0012.92,0007.24,0006.67
2023-07-10 13:12:00,SystemResetWarning,0830.5,5.00,000.00,029.5,026.6,000.0,038.2,030.8,30.0,-002.8,0012.51,0007.25,0006.64
2023-07-10 13:13:00,SystemResetWarning,0830.5,5.00,000.00,029.5,026.9,000.0,038.2,030.9,29.8,-002.9,0012.53,0007.20,0006.61
2023-07-10 13:14:00,SystemResetWarning,0830.5,5.01,000.00,029.5,027.2,000.0,038.2,030.9,30.0,-002.6,0012.55,0007.15,0006.59
2023-07-10 13:15:00,SystemResetWarning,0830.7,5.01,000.00,029.5,027.5,000.0,038.2,031.0,29.9,-002.8,0012.51,0007.12,0006.55
2023-07-10 13:16:00,SystemResetWarning,0830.4,4.99,000.00,029.5,027.7,000.0,038.1,031.0,29.9,-002.4,0012.47,0007.07,0006.52
2023-07-10 13:17:00,SystemResetWarning,0830.4,4.99,000.00,029.5,027.8,000.0,038.1,031.1,30.2,-002.2,0012.52,0007.08,0006.50
2023-07-10 13:18:00,SystemResetWarning,0830.4,5.01,000.00,029.5,027.9,000.0,038.1,031.1,30.5,-002.1,0012.11,0007.06,0006.48
2023-07-10 13:19:00,SystemResetWarning,0830.4,5.01,000.00,029.6,028.1,000.0,038.1,031.1,30.3,-001.1,0012.45,0007.02,0006.46
2023-07-10 13:20:00,SystemResetWarning,0830.4,5.00,000.00,029.6,028.2,000.0,038.2,031.2,30.0,-001.0,0012.38,0007.00,0006.46
2023-07-10 13:21:00,SystemResetWarning,0830.6,4.98,000.00,029.6,028.2,000.0,038.2,031.2,29.6,-000.5,0011.63,0006.99,0006.46
2023-07-10 13:22:00,SystemResetWarning,0830.5,5.00,000.00,029.6,028.3,000.0,038.2,031.2,29.9,-000.0,0011.64,0007.01,0006.48
2023-07-10 13:23:00,SystemResetWarning,0830.5,5.01,000.00,029.7,028.4,000.0,038.2,031.2,30.7,-000.4,0011.13,0006.99,0006.48
2023-07-10 13:24:00,SystemResetWarning,0830.5,5.01,000.00,029.7,028.4,000.0,038.2,031.3,29.6,-000.3,0011.02,0006.97,0006.48
2023-07-10 13:25:00,SystemResetWarning,0830.5,4.99,000.00,029.7,028.5,000.0,038.2,031.3,30.4,0000.2,0010.87,0006.99,0006.48
2023-07-10 13:26:00,SystemResetWarning,0830.6,4.99,000.00,029.7,028.5,000.0,038.2,031.3,30.1,0000.7,0011.01,0007.00,0006.48
2023-07-10 13:27:00,SystemResetWarning,0830.6,5.01,000.00,029.7,028.6,000.0,038.2,031.3,30.2,0000.0,0011.09,0007.01,0006.49
2023-07-10 13:28:00,SystemResetWarning,0830.5,5.01,000.00,029.8,028.6,000.0,038.3,031.4,30.1,0000.0,0010.84,0007.00,0006.50
2023-07-10 13:29:00,SystemResetWarning,0830.5,5.00,000.00,029.8,028.6,000.0,038.3,031.4,30.3,0000.0,0010.75,0007.00,0006.50
2023-07-10 13:30:00,SystemResetWarning,0830.6,5.01,000.00,029.8,028.6,000.0,038.3,031.4,29.4,0000.3,0010.37,0007.03,0006.51
2023-07-10 13:31:00,SystemResetWarning,0830.6,4.98,000.00,029.8,027.7,000.0,038.2,031.4,29.4,0000.6,0010.48,0007.04,0006.51
2023-07-10 13:32:00,SystemResetWarning,0830.6,5.00,000.00,029.8,026.0,000.0,038.1,031.1,30.3,0000.2,0010.54,0007.06,0006.52
2023-07-10 13:33:00,SystemResetWarning,0830.6,5.01,000.00,029.7,025.3,000.0,038.0,030.9,30.0,0000.3,0010.46,0007.06,0006.53
2023-07-10 13:34:00,SystemResetWarning,0830.6,5.00,000.00,029.6,025.4,000.0,038.0,030.7,30.3,0000.2,0010.47,0007.06,0006.54
2023-07-10 13:35:00,SystemResetWarning,0830.6,4.99,000.00,029.5,025.8,000.0,038.1,030.7,30.5,0000.3,0010.50,0007.07,0006.54
2023-07-10 13:36:00,SystemResetWarning,0830.6,5.00,000.00,029.4,026.2,000.0,038.1,030.7,30.6,0000.2,0010.63,0007.08,0006.56
2023-07-10 13:37:00,SystemResetWarning,0830.5,5.01,000.00,029.4,026.6,000.0,038.1,030.8,30.3,-000.0,0010.62,0007.12,0006.58
2023-07-10 13:38:00,SystemResetWarning,0830.6,5.01,000.00,029.4,026.9,000.0,038.1,030.9,30.4,0000.0,0010.50,0007.15,0006.61
2023-07-10 13:39:00,SystemResetWarning,0830.6,4.99,000.00,029.4,027.2,000.0,038.1,030.9,30.1,0000.0,0010.49,0007.17,0006.66
2023-07-10 13:40:00,SystemResetWarning,0830.6,5.00,000.00,029.4,027.5,000.0,038.1,031.0,31.5,0000.9,0010.52,0007.20,0006.70
2023-07-10 13:41:00,SystemResetWarning,0830.5,4.99,000.00,029.5,027.7,000.0,038.1,031.0,31.1,0000.9,0010.61,0007.24,0006.74
2023-07-10 13:42:00,SystemResetWarning,0830.5,5.00,000.00,029.5,027.8,000.0,038.1,031.0,31.0,0001.0,0010.55,0007.28,0006.78
2023-07-10 13:43:00,SystemResetWarning,0830.5,5.00,000.00,029.5,028.0,000.0,038.1,031.1,31.5,0000.0,0010.61,0007.29,0006.80
2023-07-10 13:44:00,SystemResetWarning,0830.6,5.01,000.00,029.5,028.1,000.0,038.1,031.1,30.8,0000.0,0010.88,0007.33,0006.83
2023-07-10 13:45:00,SystemResetWarning,0830.6,5.00,000.00,029.6,028.2,000.0,038.1,031.1,30.5,0000.6,0010.84,0007.35,0006.85
2023-07-10 13:46:00,SystemResetWarning,0830.5,5.00,000.00,029.6,028.3,000.0,038.1,031.2,30.2,0001.1,0010.92,0007.39,0006.88
2023-07-10 13:47:00,SystemResetWarning,0830.5,5.00,000.00,029.6,028.4,000.0,038.1,031.2,30.1,0000.0,0010.76,0007.39,0006.90
2023-07-10 13:48:00,SystemResetWarning,0830.6,5.00,000.00,029.6,028.4,000.0,038.1,031.2,30.4,0001.2,0010.61,0007.39,0006.93
2023-07-10 13:49:00,SystemResetWarning,0830.6,5.00,000.00,029.7,028.5,000.0,038.1,031.3,30.2,0001.2,0010.72,0007.42,0006.95
2023-07-10 13:50:00,SystemResetWarning,0830.6,5.01,000.00,029.7,028.5,000.0,038.2,031.3,30.9,0000.0,0010.77,0007.41,0006.93
2023-07-10 13:51:00,SystemResetWarning,0830.6,5.00,000.00,029.7,028.5,000.0,038.2,031.3,29.5,0000.0,0011.14,0007.43,0006.93
2023-07-10 13:52:00,SystemResetWarning,0830.6,4.98,000.00,029.7,027.3,000.0,038.1,031.3,30.8,0000.0,0011.31,0007.43,0006.94
2023-07-10 13:53:00,SystemResetWarning,0830.6,5.01,000.00,029.7,025.8,000.0,038.0,031.1,30.9,0000.0,0011.29,0007.43,0006.95
2023-07-10 13:54:00,SystemResetWarning,0830.6,5.02,000.00,029.6,025.4,000.0,037.9,030.9,29.9,0000.0,0011.27,0007.44,0006.98
2023-07-10 13:55:00,SystemResetWarning,0830.6,5.00,000.00,029.5,025.6,000.0,037.9,030.7,29.4,0000.0,0011.18,0007.49,0007.00
2023-07-10 13:56:00,SystemResetWarning,0830.4,5.00,000.00,029.4,026.0,000.0,038.0,030.7,29.9,-000.3,0011.15,0007.51,0007.03
2023-07-10 13:57:00,SystemResetWarning,0830.5,5.00,000.00,029.4,026.4,000.0,038.0,030.7,30.3,-000.2,0011.14,0007.54,0007.05
2023-07-10 13:58:00,SystemResetWarning,0830.4,5.00,000.00,029.4,026.8,000.0,038.0,030.8,30.6,-001.6,0011.19,0007.57,0007.07
2023-07-10 13:59:00,SystemResetWarning,0830.4,5.00,000.00,029.4,027.1,000.0,038.0,030.8,29.4,-001.1,0011.46,0007.62,0007.10
